ラーセン彗星

C/2004 C1 ( Larsen )

English version
Home page
Updated on May 8, 2004

---------------------------------------------------------------------

・ プロフィール

発見日 2004年2月12日
発見光度 20.2等
発見者 J. A. Larsen (Lunar and Planetary Laboratory)

・ 軌道要素

T 2003 Mar. 19.3321 TT                                  MPC
q   4.349795             (2000.0)            P               Q
n   0.0248686      Peri.  315.9683      -0.3483360      -0.9094799
a  11.624332       Node   151.9549      +0.9365014      -0.3480777
e   0.625803       Incl.   28.8625      +0.0403371      +0.2273502
P  39.6
>From 76 observations 2004 Jan. 23-Apr. 11.

・ 星図

・ 光度変化

        m1 = 9.6 + 5 logΔ + 10.0 log r

---------------------------------------------------------------------

軌道要素はM.P.E.C. 2004-G36に掲載されたものです。
星図は StellaNavigator Ver.2.0 for Windows (アストロアーツ 編著 / アスキー出版局刊) で作成したものです。
光度グラフはComet for Windowsで作成したものです。

---------------------------------------------------------------------

Copyright(C) Seiichi Yoshida (comet@aerith.net). All rights reserved.